User: anonymous   Login
Location: ????
(55.2778°N, 39.2433°E)
Time: 13:42:31
(UTC+00:00)
Language:

Cosmos 2026 Rocket - Orbit

View from above orbital plane
View from above orbital plane
View from above satellite
View from above satellite

Ground track
Ground track

The orbit data is extracted from the following two-line orbital elements,

1 20046U 89042B   24171.59084902  .00000185  00000-0  16615-3 0  9993
2 20046  82.9362 195.3604 0043521  90.6038 270.0107 13.78440712761595
Epoch (UTC): 19 June 2024 14:10:49
Eccentricity: 0.0043521
inclination: 82.9362°
perigee height: 937 km
apogee height: 1001 km
right ascension of ascending node: 195.3604°
argument of perigee: 90.6038°
revolutions per day: 13.78440712
mean anomaly at epoch: 270.0107°
orbit number at epoch: 76159

The dashed part of the orbit path shows where the satellite is in the earth's shadow,  

DLR